Year,Month,Day,Hour,Minute,Value (Times are PST for temperature in C)
2020,12,04,00,00,6.30
2020,12,04,00,01,6.30
2020,12,04,00,02,6.30
2020,12,04,00,03,6.20
2020,12,04,00,04,6.20
2020,12,04,00,05,6.20
2020,12,04,00,06,6.10
2020,12,04,00,07,6.10
2020,12,04,00,08,6.10
2020,12,04,00,09,6.10
2020,12,04,00,10,6.00
2020,12,04,00,11,6.00
2020,12,04,00,12,6.00
2020,12,04,00,13,6.00
2020,12,04,00,14,5.90
2020,12,04,00,15,5.90
2020,12,04,00,16,5.90
2020,12,04,00,17,5.90
2020,12,04,00,18,5.90
2020,12,04,00,19,5.90
2020,12,04,00,20,5.90
2020,12,04,00,21,5.90
2020,12,04,00,22,5.90
2020,12,04,00,23,5.90
2020,12,04,00,24,5.90
2020,12,04,00,25,5.90
2020,12,04,00,26,5.90
2020,12,04,00,27,5.90
2020,12,04,00,28,5.80
2020,12,04,00,29,5.80
2020,12,04,00,30,5.80
2020,12,04,00,31,5.80
2020,12,04,00,32,5.80
2020,12,04,00,33,5.80
2020,12,04,00,34,5.90
2020,12,04,00,35,5.90
2020,12,04,00,36,5.90
2020,12,04,00,37,5.90
2020,12,04,00,38,6.00
2020,12,04,00,39,6.00
2020,12,04,00,40,6.00
2020,12,04,00,41,6.00
2020,12,04,00,42,6.10
2020,12,04,00,43,6.10
2020,12,04,00,44,6.10
2020,12,04,00,45,6.10
2020,12,04,00,46,6.10
2020,12,04,00,47,6.10
2020,12,04,00,48,6.10
2020,12,04,00,49,6.10
2020,12,04,00,50,6.10
2020,12,04,00,51,6.10
2020,12,04,00,52,6.10
2020,12,04,00,53,6.10
2020,12,04,00,54,6.10
2020,12,04,00,55,6.10
2020,12,04,00,56,6.10
2020,12,04,00,57,6.00
2020,12,04,00,58,6.00
2020,12,04,00,59,5.90
2020,12,04,01,00,5.90
2020,12,04,01,01,5.90
2020,12,04,01,02,5.90
2020,12,04,01,03,5.90
2020,12,04,01,04,5.80
2020,12,04,01,05,5.80
2020,12,04,01,06,5.80
2020,12,04,01,07,5.80
2020,12,04,01,08,5.80
2020,12,04,01,09,5.70
2020,12,04,01,10,5.70
2020,12,04,01,11,5.70
2020,12,04,01,12,5.70
2020,12,04,01,13,5.70
2020,12,04,01,14,5.80
2020,12,04,01,15,5.80
2020,12,04,01,16,5.90
2020,12,04,01,17,5.90
2020,12,04,01,18,6.00
2020,12,04,01,19,6.10
2020,12,04,01,20,6.20
2020,12,04,01,21,6.30
2020,12,04,01,22,6.30
2020,12,04,01,23,6.40
2020,12,04,01,24,6.50
2020,12,04,01,25,6.50
2020,12,04,01,26,6.50
2020,12,04,01,27,6.60
2020,12,04,01,28,6.60
2020,12,04,01,29,6.60
2020,12,04,01,30,6.70
2020,12,04,01,31,6.70
2020,12,04,01,32,6.70
2020,12,04,01,33,6.70
2020,12,04,01,34,6.70
2020,12,04,01,35,6.70
2020,12,04,01,36,6.70
2020,12,04,01,37,6.60
2020,12,04,01,38,6.60
2020,12,04,01,39,6.60
2020,12,04,01,40,6.70
2020,12,04,01,41,6.70
2020,12,04,01,42,6.70
2020,12,04,01,43,6.80
2020,12,04,01,44,6.80
2020,12,04,01,45,6.90
2020,12,04,01,46,6.90
2020,12,04,01,47,7.00
2020,12,04,01,48,7.00
2020,12,04,01,49,7.10
2020,12,04,01,50,7.10
2020,12,04,01,51,7.20
2020,12,04,01,52,7.20
2020,12,04,01,53,7.20
2020,12,04,01,54,7.20
2020,12,04,01,55,7.30
2020,12,04,01,56,7.30
2020,12,04,01,57,7.30
2020,12,04,01,58,7.30
2020,12,04,01,59,7.30
2020,12,04,02,00,7.40
2020,12,04,02,01,7.40
2020,12,04,02,02,7.40
2020,12,04,02,03,7.50
2020,12,04,02,04,7.50
2020,12,04,02,05,7.50
2020,12,04,02,06,7.60
2020,12,04,02,07,7.60
2020,12,04,02,08,7.60
2020,12,04,02,09,7.60
2020,12,04,02,10,7.70
2020,12,04,02,11,7.70
2020,12,04,02,12,7.70
2020,12,04,02,13,7.70
2020,12,04,02,14,7.70
2020,12,04,02,15,7.70
2020,12,04,02,16,7.70
2020,12,04,02,17,7.70
2020,12,04,02,18,7.70
2020,12,04,02,19,7.70
2020,12,04,02,20,7.70
2020,12,04,02,21,7.70
2020,12,04,02,22,7.70
2020,12,04,02,23,7.70
2020,12,04,02,24,7.70
2020,12,04,02,25,7.70
2020,12,04,02,26,7.70
2020,12,04,02,27,7.70
2020,12,04,02,28,7.80
2020,12,04,02,29,7.80
2020,12,04,02,30,7.80
2020,12,04,02,31,7.80
2020,12,04,02,32,7.80
2020,12,04,02,33,7.80
2020,12,04,02,34,7.80
2020,12,04,02,35,7.80
2020,12,04,02,36,7.80
2020,12,04,02,37,7.80
2020,12,04,02,38,7.80
2020,12,04,02,39,7.80
2020,12,04,02,40,7.80
2020,12,04,02,41,7.90
2020,12,04,02,42,7.80
2020,12,04,02,43,7.80
2020,12,04,02,44,7.80
2020,12,04,02,45,7.90
2020,12,04,02,46,7.80
2020,12,04,02,47,7.90
2020,12,04,02,48,7.90
2020,12,04,02,49,7.90
2020,12,04,02,50,7.90
2020,12,04,02,51,7.90
2020,12,04,02,52,7.90
2020,12,04,02,53,7.90
2020,12,04,02,54,7.90
2020,12,04,02,55,7.90
2020,12,04,02,56,7.90
2020,12,04,02,57,7.90
2020,12,04,02,58,7.90
2020,12,04,02,59,7.90
2020,12,04,03,00,7.90
2020,12,04,03,01,7.90
2020,12,04,03,02,7.90
2020,12,04,03,03,8.00
2020,12,04,03,04,7.90
2020,12,04,03,05,8.00
2020,12,04,03,06,8.00
2020,12,04,03,07,8.00
2020,12,04,03,08,8.00
2020,12,04,03,09,8.00
2020,12,04,03,10,8.00
2020,12,04,03,11,8.00
2020,12,04,03,12,8.00
2020,12,04,03,13,8.10
2020,12,04,03,14,8.10
2020,12,04,03,15,8.10
2020,12,04,03,16,8.10
2020,12,04,03,17,8.10
2020,12,04,03,18,8.20
2020,12,04,03,19,8.20
2020,12,04,03,20,8.20
2020,12,04,03,21,8.20
2020,12,04,03,22,8.30
2020,12,04,03,23,8.30
2020,12,04,03,24,8.30
2020,12,04,03,25,8.30
2020,12,04,03,26,8.40
2020,12,04,03,27,8.40
2020,12,04,03,28,8.40
2020,12,04,03,29,8.40
2020,12,04,03,30,8.40
2020,12,04,03,31,8.50
2020,12,04,03,32,8.50
2020,12,04,03,33,8.50
2020,12,04,03,34,8.50
2020,12,04,03,35,8.50
2020,12,04,03,36,8.60
2020,12,04,03,37,8.60
2020,12,04,03,38,8.60
2020,12,04,03,39,8.60
2020,12,04,03,40,8.60
2020,12,04,03,41,8.60
2020,12,04,03,42,8.50
2020,12,04,03,43,8.50
2020,12,04,03,44,8.50
2020,12,04,03,45,8.60
2020,12,04,03,46,8.60
2020,12,04,03,47,8.60
2020,12,04,03,48,8.60
2020,12,04,03,49,8.60
2020,12,04,03,50,8.60
2020,12,04,03,51,8.60
2020,12,04,03,52,8.60
2020,12,04,03,53,8.60
2020,12,04,03,54,8.60
2020,12,04,03,55,8.70
2020,12,04,03,56,8.70
2020,12,04,03,57,8.70
2020,12,04,03,58,8.80
2020,12,04,03,59,8.80
2020,12,04,04,00,8.80
2020,12,04,04,01,8.80
2020,12,04,04,02,8.80
2020,12,04,04,03,8.80
2020,12,04,04,04,8.70
2020,12,04,04,05,8.80
2020,12,04,04,06,8.80
2020,12,04,04,07,8.80
2020,12,04,04,08,8.80
2020,12,04,04,09,8.80
2020,12,04,04,10,8.80
2020,12,04,04,11,8.80
2020,12,04,04,12,8.80
2020,12,04,04,13,8.70
2020,12,04,04,14,8.70
2020,12,04,04,15,8.70
2020,12,04,04,16,8.70
2020,12,04,04,17,8.70
2020,12,04,04,18,8.70
2020,12,04,04,19,8.70
2020,12,04,04,20,8.70
2020,12,04,04,21,8.70
2020,12,04,04,22,8.70
2020,12,04,04,23,8.70
2020,12,04,04,24,8.70
2020,12,04,04,25,8.80
2020,12,04,04,26,8.80
2020,12,04,04,27,8.80
2020,12,04,04,28,8.70
2020,12,04,04,29,8.70
2020,12,04,04,30,8.70
2020,12,04,04,31,8.70
2020,12,04,04,32,8.70
2020,12,04,04,33,8.70
2020,12,04,04,34,8.70
2020,12,04,04,35,8.70
2020,12,04,04,36,8.80
2020,12,04,04,37,8.70
2020,12,04,04,38,8.70
2020,12,04,04,39,8.70
2020,12,04,04,40,8.70
2020,12,04,04,41,8.70
2020,12,04,04,42,8.70
2020,12,04,04,43,8.70
2020,12,04,04,44,8.70
2020,12,04,04,45,8.60
2020,12,04,04,46,8.60
2020,12,04,04,47,8.60
2020,12,04,04,48,8.60
2020,12,04,04,49,8.60
2020,12,04,04,50,8.60
2020,12,04,04,51,8.60
2020,12,04,04,52,8.60
2020,12,04,04,53,8.60
2020,12,04,04,54,8.60
2020,12,04,04,55,8.60
2020,12,04,04,56,8.60
2020,12,04,04,57,8.60
2020,12,04,04,58,8.60
2020,12,04,04,59,8.50
2020,12,04,05,00,8.50
2020,12,04,05,01,8.50
2020,12,04,05,02,8.50
2020,12,04,05,03,8.50
2020,12,04,05,04,8.40
2020,12,04,05,05,8.40
2020,12,04,05,06,8.40
2020,12,04,05,07,8.40
2020,12,04,05,08,8.40
2020,12,04,05,09,8.40
2020,12,04,05,10,8.40
2020,12,04,05,11,8.40
2020,12,04,05,12,8.40
2020,12,04,05,13,8.40
2020,12,04,05,14,8.40
2020,12,04,05,15,8.40
2020,12,04,05,16,8.40
2020,12,04,05,17,8.30
2020,12,04,05,18,8.30
2020,12,04,05,19,8.30
2020,12,04,05,20,8.30
2020,12,04,05,21,8.30
2020,12,04,05,22,8.30
2020,12,04,05,23,8.30
2020,12,04,05,24,8.30
2020,12,04,05,25,8.30
2020,12,04,05,26,8.30
2020,12,04,05,27,8.30
2020,12,04,05,28,8.30
2020,12,04,05,29,8.30
2020,12,04,05,30,8.30
2020,12,04,05,31,8.30
2020,12,04,05,32,8.30
2020,12,04,05,33,8.30
2020,12,04,05,34,8.30
2020,12,04,05,35,8.30
2020,12,04,05,36,8.30
2020,12,04,14,41,10.80
2020,12,04,14,42,10.80
2020,12,04,14,43,10.80
2020,12,04,14,44,10.80
2020,12,04,14,45,10.80
2020,12,04,14,46,10.80
2020,12,04,14,47,10.70
2020,12,04,14,48,10.70
2020,12,04,14,49,10.70
2020,12,04,14,50,10.60
2020,12,04,14,51,10.60
2020,12,04,14,52,10.60
2020,12,04,14,53,10.50
2020,12,04,14,54,10.50
2020,12,04,14,55,10.40
2020,12,04,14,56,10.40
2020,12,04,14,57,10.40
2020,12,04,14,58,10.30
2020,12,04,14,59,10.30
2020,12,04,15,00,10.20
2020,12,04,15,01,10.20
2020,12,04,15,02,10.10
2020,12,04,15,03,10.10
2020,12,04,15,04,10.10
2020,12,04,15,05,10.10
2020,12,04,15,06,10.00
2020,12,04,15,07,10.00
2020,12,04,15,08,10.00
2020,12,04,15,09,9.90
2020,12,04,15,10,9.90
2020,12,04,15,11,9.80
2020,12,04,15,12,9.80
2020,12,04,15,13,9.80
2020,12,04,15,14,9.70
2020,12,04,15,15,9.70
2020,12,04,15,16,9.70
2020,12,04,15,17,9.70
2020,12,04,15,18,9.70
2020,12,04,15,19,9.60
2020,12,04,15,20,9.60
2020,12,04,15,21,9.60
2020,12,04,15,22,9.50
2020,12,04,15,23,9.50
2020,12,04,15,24,9.50
2020,12,04,15,25,9.50
2020,12,04,15,26,9.40
2020,12,04,15,27,9.40
2020,12,04,15,28,9.40
2020,12,04,15,29,9.40
2020,12,04,15,30,9.30
2020,12,04,15,31,9.30
2020,12,04,15,32,9.20
2020,12,04,15,33,9.20
2020,12,04,15,34,9.10
2020,12,04,15,35,9.00
2020,12,04,15,36,8.90
2020,12,04,15,37,8.90
2020,12,04,15,38,8.80
2020,12,04,15,39,8.70
2020,12,04,15,40,8.60
2020,12,04,15,41,8.40
2020,12,04,15,42,8.30
2020,12,04,15,43,8.20
2020,12,04,15,44,8.10
2020,12,04,15,45,7.90
2020,12,04,15,46,7.80
2020,12,04,15,47,7.70
2020,12,04,15,48,7.60
2020,12,04,15,49,7.50
2020,12,04,15,50,7.40
2020,12,04,15,51,7.30
2020,12,04,15,52,7.20
2020,12,04,15,53,7.00
2020,12,04,15,54,7.00
2020,12,04,15,55,6.80
2020,12,04,15,56,6.80
2020,12,04,15,57,6.70
2020,12,04,15,58,6.60
2020,12,04,15,59,6.60
2020,12,04,16,00,6.50
2020,12,04,16,01,6.40
2020,12,04,16,02,6.30
2020,12,04,16,03,6.30
2020,12,04,16,04,6.20
2020,12,04,16,05,6.10
2020,12,04,16,06,6.10
2020,12,04,16,07,6.00
2020,12,04,16,08,5.90
2020,12,04,16,09,5.90
2020,12,04,16,10,5.80
2020,12,04,16,11,5.80
2020,12,04,16,12,5.70
2020,12,04,16,13,5.70
2020,12,04,16,14,5.70
2020,12,04,16,15,5.60
2020,12,04,16,16,5.50
2020,12,04,16,17,5.50
2020,12,04,16,18,5.40
2020,12,04,16,19,5.40
2020,12,04,16,20,5.40
2020,12,04,16,21,5.30
2020,12,04,16,22,5.30
2020,12,04,16,23,5.20
2020,12,04,16,24,5.20
2020,12,04,16,25,5.20
2020,12,04,16,26,5.10
2020,12,04,16,27,5.10
2020,12,04,16,28,5.10
2020,12,04,16,29,5.10
2020,12,04,16,30,5.10
2020,12,04,16,31,5.00
2020,12,04,16,32,5.00
2020,12,04,16,33,5.00
2020,12,04,16,34,4.90
2020,12,04,16,35,4.90
2020,12,04,16,36,4.90
2020,12,04,16,37,4.90
2020,12,04,16,38,4.80
2020,12,04,16,39,4.80
2020,12,04,16,40,4.80
2020,12,04,16,41,4.70
2020,12,04,16,42,4.70
2020,12,04,16,43,4.70
2020,12,04,16,44,4.70
2020,12,04,16,45,4.60
2020,12,04,16,46,4.60
2020,12,04,16,47,4.60
2020,12,04,16,48,4.50
2020,12,04,16,49,4.50
2020,12,04,16,50,4.50
2020,12,04,16,51,4.40
2020,12,04,16,52,4.40
2020,12,04,16,53,4.40
2020,12,04,16,54,4.30
2020,12,04,16,55,4.30
2020,12,04,16,56,4.30
2020,12,04,16,57,4.20
2020,12,04,16,58,4.20
2020,12,04,16,59,4.20
2020,12,04,17,00,4.10
2020,12,04,17,01,4.10
2020,12,04,17,02,4.00
2020,12,04,17,03,4.00
2020,12,04,17,04,4.00
2020,12,04,17,05,3.90
2020,12,04,17,06,3.90
2020,12,04,17,07,3.90
2020,12,04,17,08,3.90
2020,12,04,17,09,3.80
2020,12,04,17,10,3.90
2020,12,04,17,11,3.90
2020,12,04,17,12,3.90
2020,12,04,17,13,3.90
2020,12,04,17,14,3.90
2020,12,04,17,15,3.90
2020,12,04,17,16,3.90
2020,12,04,17,17,3.90
2020,12,04,17,18,4.00
2020,12,04,17,19,4.00
2020,12,04,17,20,4.10
2020,12,04,17,21,4.10
2020,12,04,17,22,4.10
2020,12,04,17,23,4.10
2020,12,04,17,24,4.10
2020,12,04,17,25,4.10
2020,12,04,17,26,4.10
2020,12,04,17,27,4.10
2020,12,04,17,28,4.10
2020,12,04,17,29,4.10
2020,12,04,17,30,4.10
2020,12,04,17,31,4.10
2020,12,04,17,32,4.10
2020,12,04,17,33,4.10
2020,12,04,17,34,4.10
2020,12,04,17,35,4.10
2020,12,04,17,36,4.00
2020,12,04,17,37,4.00
2020,12,04,17,38,4.00
2020,12,04,17,39,3.90
2020,12,04,17,40,3.90
2020,12,04,17,41,3.90
2020,12,04,17,42,3.90
2020,12,04,17,43,3.80
2020,12,04,17,44,3.80
2020,12,04,17,45,3.80
2020,12,04,17,46,3.80
2020,12,04,17,47,3.80
2020,12,04,17,48,3.80
2020,12,04,17,49,3.70
2020,12,04,17,50,3.70
2020,12,04,17,51,3.70
2020,12,04,17,52,3.60
2020,12,04,17,53,3.60
2020,12,04,17,54,3.60
2020,12,04,17,55,3.50
2020,12,04,17,56,3.50
2020,12,04,17,57,3.50
2020,12,04,17,58,3.40
2020,12,04,17,59,3.40
2020,12,04,18,00,3.30
2020,12,04,18,01,3.30
2020,12,04,18,02,3.30
2020,12,04,18,03,3.30
2020,12,04,18,04,3.20
2020,12,04,18,05,3.20
2020,12,04,18,06,3.20
2020,12,04,18,07,3.20
2020,12,04,18,08,3.20
2020,12,04,18,09,3.10
2020,12,04,18,10,3.10
2020,12,04,18,11,3.10
2020,12,04,18,12,3.10
2020,12,04,18,13,3.10
2020,12,04,18,14,3.10
2020,12,04,18,15,3.00
2020,12,04,18,16,3.00
2020,12,04,18,17,3.00
2020,12,04,18,18,3.00
2020,12,04,18,19,3.00
2020,12,04,18,20,3.00
2020,12,04,18,21,2.90
2020,12,04,18,22,2.90
2020,12,04,18,23,2.90
2020,12,04,18,24,2.90
2020,12,04,18,25,2.90
2020,12,04,18,26,2.80
2020,12,04,18,27,2.80
2020,12,04,18,28,2.80
2020,12,04,18,29,2.80
2020,12,04,18,30,2.80
2020,12,04,18,31,2.80
2020,12,04,18,32,2.80
2020,12,04,18,33,2.80
2020,12,04,18,34,2.80
2020,12,04,18,35,2.70
2020,12,04,18,36,2.70
2020,12,04,18,37,2.70
2020,12,04,18,38,2.70
2020,12,04,18,39,2.70
2020,12,04,18,40,2.70
2020,12,04,18,41,2.70
2020,12,04,18,42,2.70
2020,12,04,18,43,2.70
2020,12,04,18,44,2.70
2020,12,04,18,45,2.70
2020,12,04,18,46,2.70
2020,12,04,18,47,2.70
2020,12,04,18,48,2.70
2020,12,04,18,49,2.70
2020,12,04,18,50,2.60
2020,12,04,18,51,2.60
2020,12,04,18,52,2.60
2020,12,04,18,53,2.60
2020,12,04,18,54,2.60
2020,12,04,18,55,2.50
2020,12,04,18,56,2.50
2020,12,04,18,57,2.50
2020,12,04,18,58,2.50
2020,12,04,18,59,2.50
2020,12,04,19,00,2.50
2020,12,04,19,01,2.60
2020,12,04,19,02,2.60
2020,12,04,19,03,2.60
2020,12,04,19,04,2.70
2020,12,04,19,05,2.80
2020,12,04,19,06,2.80
2020,12,04,19,07,2.80
2020,12,04,19,08,2.80
2020,12,04,19,09,2.90
2020,12,04,19,10,2.80
2020,12,04,19,11,2.80
2020,12,04,19,12,2.80
2020,12,04,19,13,2.80
2020,12,04,19,14,2.80
2020,12,04,19,15,2.80
2020,12,04,19,16,2.70
2020,12,04,19,17,2.70
2020,12,04,19,18,2.70
2020,12,04,19,19,2.70
2020,12,04,19,20,2.70
2020,12,04,19,21,2.60
2020,12,04,19,22,2.60
2020,12,04,19,23,2.60
2020,12,04,19,24,2.60
2020,12,04,19,25,2.60
2020,12,04,19,26,2.60
2020,12,04,19,27,2.60
2020,12,04,19,28,2.60
2020,12,04,19,29,2.50
2020,12,04,19,30,2.50
2020,12,04,19,31,2.50
2020,12,04,19,32,2.50
2020,12,04,19,33,2.50
2020,12,04,19,34,2.40
2020,12,04,19,35,2.40
2020,12,04,19,36,2.40
2020,12,04,19,37,2.30
2020,12,04,19,38,2.30
2020,12,04,19,39,2.30
2020,12,04,19,40,2.30
2020,12,04,19,41,2.30
2020,12,04,19,42,2.30
2020,12,04,19,43,2.30
2020,12,04,19,44,2.30
2020,12,04,19,45,2.30
2020,12,04,19,46,2.30
2020,12,04,19,47,2.30
2020,12,04,19,48,2.30
2020,12,04,19,49,2.30
2020,12,04,19,50,2.30
2020,12,04,19,51,2.30
2020,12,04,19,52,2.30
2020,12,04,19,53,2.30
2020,12,04,19,54,2.30
2020,12,04,19,55,2.30
2020,12,04,19,56,2.30
2020,12,04,19,57,2.30
2020,12,04,19,58,2.30
2020,12,04,19,59,2.30
2020,12,04,20,00,2.30
2020,12,04,20,01,2.30
2020,12,04,20,02,2.30
2020,12,04,20,03,2.30
2020,12,04,20,04,2.30
2020,12,04,20,05,2.30
2020,12,04,20,06,2.30
2020,12,04,20,07,2.30
2020,12,04,20,08,2.30
2020,12,04,20,09,2.30
2020,12,04,20,10,2.30
2020,12,04,20,11,2.30
2020,12,04,20,12,2.30
2020,12,04,20,13,2.30
2020,12,04,20,14,2.30
2020,12,04,20,15,2.30
2020,12,04,20,16,2.30
2020,12,04,20,17,2.30
2020,12,04,20,18,2.30
2020,12,04,20,19,2.30
2020,12,04,20,20,2.30
2020,12,04,20,21,2.30
2020,12,04,20,22,2.30
2020,12,04,20,23,2.30
2020,12,04,20,24,2.40
2020,12,04,20,25,2.30
2020,12,04,20,26,2.30
2020,12,04,20,27,2.30
2020,12,04,20,28,2.30
2020,12,04,20,29,2.30
2020,12,04,20,30,2.30
2020,12,04,20,31,2.30
2020,12,04,20,32,2.30
2020,12,04,20,33,2.20
2020,12,04,20,34,2.20
2020,12,04,20,35,2.20
2020,12,04,20,36,2.20
2020,12,04,20,37,2.20
2020,12,04,20,38,2.10
2020,12,04,20,39,2.10
2020,12,04,20,40,2.10
2020,12,04,20,41,2.10
2020,12,04,20,42,2.10
2020,12,04,20,43,2.10
2020,12,04,20,44,2.10
2020,12,04,20,45,2.10
2020,12,04,20,46,2.00
2020,12,04,20,47,2.00
2020,12,04,20,48,2.00
2020,12,04,20,49,2.00
2020,12,04,20,50,2.00
2020,12,04,20,51,2.00
2020,12,04,20,52,2.00
2020,12,04,20,53,1.90
2020,12,04,20,54,1.90
2020,12,04,20,55,1.90
2020,12,04,20,56,1.90
2020,12,04,20,57,1.90
2020,12,04,20,58,1.90
2020,12,04,20,59,1.90
2020,12,04,21,00,1.90
2020,12,04,21,01,1.90
2020,12,04,21,02,1.90
2020,12,04,21,03,1.90
2020,12,04,21,04,1.90
2020,12,04,21,05,1.80
2020,12,04,21,06,1.80
2020,12,04,21,07,1.80
2020,12,04,21,08,1.80
2020,12,04,21,09,1.80
2020,12,04,21,10,1.80
2020,12,04,21,11,1.80
2020,12,04,21,12,1.80
2020,12,04,21,13,1.80
2020,12,04,21,14,1.80
